> Flugplatz > 
Bitte achten Sie beim Anflug auf mögliche Fallschirmspringer auf der Nord seite desPlatzes, kontaktieren Sie zur Sicherheit den Flugleiter auf Leutkirch INFO 122,875.
Zollabfertigung:
für Ein- und Ausflug bei Voranmeldung mindestens 3 Stunden, nur Personenverkehr – keine Warenabfertigung.
Günstig Tanken:
Avgas 100 II · Super 95 · Jet A1 · Diesel
Achtung! Sommer-Öffnungszeiten:
15.03.2016 – 31.10.2016:
Täglich 09:00 – SS+30/20:00 (loc)
So/Hol  10:30 – SS+30/20:00 (loc)

Weitere Informationen finden Sie in unserem Newsbereich.

Nutzen Sie unsere Online-Anmeldung zur Zoll- und Passkontrolle.
Aktuelles:
Sicherheits- und Servicehinweise:
2016/06/28 11:20 EDJA 281120Z 28004KT 210V010 9999 SCT045 22/10 Q1019
2016/06/28 11:20 EDNY 281120Z VRB03KT CAVOK 24/14 Q1019
2016/06/28 11:20 ETHL 281120Z 26005KT 9999 SCT050 SCT150 23/10 Q1019 BLU+BLU+
Aktuelle METAR Daten (Memmingen, Friedrichshafen, Laupheim):